星链-3243 (STARLINK-3243 )

导读

STARLINK-3243是美国太空探索技术公司(SpaceX)星链(Starlink)星座中的卫星,于2022年1月19日发射升空,属于星链第二代组网卫星,核心任务是为全球提供高速低延迟互联网覆盖服务,填补偏远地区网络空白,目前已进入预定轨道,参与星座运行组网。

Basic Information
目录编号:
51116
目录名称:
STARLINK-3243
国际标识:
2022-005N
轨道中心:
EARTH
卫星名称:
星链-3243
卫星全名:
星链-3243 (STARLINK-3243 )
卫星状态:
在轨 (已飞行1696 天)
发射日期:
2022-01-19 UTC
国别 :
美国 (US)
星等 :
--
This satellite is enrolled in the Space Conjunction Data Service (SCDS) and the current flight risk assessment level is: No High Risk
Orbit Information
数据来源 国际轨道数据
星历时间: 2026-09-11T11:31:06+0800
10小时前
查看轨道信息
半长轴: 6848.877km
偏心率: 0.0001283
轨道倾角: 53.157°
近地点辐角 94.141°
升交点赤经 167.337°
平近点角 265.974°
近地点: 469.861km
远地点: 471.619km
周期: 94.013分钟
每日圈数: 15.317002
Detailed Information
固有亮度:
5
最大亮度:
2.5
卫星平台:
Starlink v1.5
覆盖范围:
全球
运营商:
太空探索技术公司
运营商所在国:
美国
制造商(研发单位):
太空探索技术公司
制造商所在国:
美国
使用方式:
暂无
Satellite Introduction
星链(Starlink)计划是由太空探索技术公司(SpaceX)提出的一个巨型低轨卫星互联网星座项目,计划在2019年至2024年间在太空搭建由约1.2万颗卫星组成的“星链”网络,其中1584颗将部署在地球上空550千米处的近地轨道,并从2020年开始工作。该卫星仍在工作。
2D Orbit Map
3D Orbit Map
Orbit Altitude Analysis Chart
Orbit Inclination Analysis Chart
Orbit Comprehensive Analysis Chart
View Comprehensive Chart
Conjunction Data List
Event ID Objects TCA Miss Dist (km) Collision Risk Probability Collision Risk Index (CRI) Action
CDM_260911-195305-111606-266622
2026-09-11T
19:53:41+0000
1.039 km
极远距离
2.373841E-5 中风险 0.63
CDM_260912-130905-111606-262321
OTTER (62623)
2026-09-12T
13:09:26+0000
1.420 km
极远距离
8.033837E-6 低风险 0.53
CDM_260913-140805-111605-719321
2026-09-13T
14:08:13+0000
1.501 km
极远距离
6.660914E-6 低风险 0.51
CDM_260908-180505-111606-552422
2026-09-08T
18:05:31+0000
2.558 km
极远距离
1.632784E-6 低风险 0.39
CDM_260912-203905-111606-921321
2026-09-12T
20:39:37+0000
2.729 km
极远距离
1.39035E-6 低风险 0.38
CDM_260912-032805-111606-877921
2026-09-12T
03:28:51+0000
2.829 km
极远距离
1.369681E-6 低风险 0.38
CDM_260911-101705-111606-528722
2026-09-11T
10:17:08+0000
2.908 km
极远距离
1.341183E-6 低风险 0.38
CDM_260912-103405-111606-416122
2026-09-12T
10:34:44+0000
2.998 km
极远距离
1.300606E-6 低风险 0.37
Miss Distance Evolution Trend with All Objects
Collision Probability Evolution Trend with All Objects